Ft. Stewart, GA

10:09 AM EDT on July 22, 2017 (GMT -0400)
Wright Army Air Field

Weather History for KLHW - August, 2011

Change the Weather History Date:

Monday, August 15, 2011

  Actual Average Record
Temperature  
Mean Temperature 84 °F -  
Max Temperature 94 °F 90 °F 98 °F (1984)
Min Temperature 72 °F 70 °F 63 °F (1983)
Cooling Degree Days 18    
Growing Degree Days 34 (Base 50)    
Moisture  
Dew Point 67 °F    
Average Humidity 63    
Maximum Humidity 89    
Minimum Humidity 32    
Precipitation  
Precipitation 0.00 in - - ()
Sea Level Pressure  
Sea Level Pressure 29.80 in    
Wind  
Wind Speed 6 mph (West)    
Max Wind Speed 14 mph    
Max Gust Speed 23 mph    
Visibility 10 miles    
Events      
Averages and records for this station are not official NWS values.
T = Trace of Precipitation, MM = Missing Value Source: NWS Daily Summary

Daily Weather History Graph

Daily Weather History Graph

Search for Another Location

Airport or City:

Trip Planner

Search our weather history database for the weather conditions in past years. The results will help you decide how hot, cold, wet, or windy it might be!

Date:

Astronomy

Aug. 15, 2011 Rise Set
Actual Time 6:50 AM EDT 8:10 PM EDT
Civil Twilight 6:25 AM EDT 8:35 PM EDT
Nautical Twilight 5:54 AM EDT 9:06 PM EDT
Astronomical Twilight 5:22 AM EDT 9:38 PM EDT
Moon 8:59 PM EDT (8/15) 8:31 AM EDT (8/15)
Length of Visible Light 14h 10m
Length of Day
13h 19m
Waning Gibbous, 97% of the Moon is Illuminated
Aug 15
Waning Gibbous
Aug 21
Last Quarter
Aug 28
New
Sep 4
First Quarter
Sep 12
Full

Hourly Weather History & Observations

Time (EDT) Temp. Heat Index Dew Point Humidity Pressure Visibility Wind Dir Wind Speed Gust Speed Precip Events Conditions
12:55 AM 77.4 °F - 73.8 °F 89% 29.79 in 10.0 mi South 4.6 mph - N/A   Partly Cloudy
1:55 AM 77.4 °F - 73.6 °F 88% 29.78 in 10.0 mi SSW 3.5 mph - N/A   Clear
2:55 AM 77.7 °F - 73.2 °F 86% 29.78 in 10.0 mi WSW 8.1 mph - N/A   Clear
3:55 AM 76.8 °F - 72.1 °F 85% 29.78 in 10.0 mi WSW 8.1 mph - N/A   Clear
4:55 AM 76.1 °F - 70.7 °F 83% 29.77 in 10.0 mi WSW 8.1 mph - N/A   Clear
5:55 AM 75.0 °F - 70.3 °F 85% 29.77 in 10.0 mi WSW 6.9 mph - N/A   Clear
6:55 AM 74.1 °F - 70.0 °F 87% 29.78 in 10.0 mi West 8.1 mph - N/A   Clear
7:55 AM 75.6 °F - 70.3 °F 84% 29.80 in 10.0 mi West 6.9 mph - N/A   Clear
8:55 AM 79.7 °F - 69.1 °F 70% 29.81 in 10.0 mi Variable 4.6 mph - N/A   Clear
9:55 AM 83.3 °F 86.6 °F 68.7 °F 61% 29.81 in 10.0 mi WNW 6.9 mph - N/A   Clear
10:55 AM 86.7 °F 89.6 °F 66.9 °F 52% 29.82 in 10.0 mi NW 8.1 mph - N/A   Clear
11:55 AM 89.6 °F 92.6 °F 66.7 °F 47% 29.82 in 10.0 mi NW 8.1 mph - N/A   Clear
12:55 PM 91.2 °F 94.1 °F 66.6 °F 44% 29.81 in 10.0 mi WNW 6.9 mph 23.0 mph N/A   Partly Cloudy
1:55 PM 92.1 °F 93.2 °F 63.0 °F 38% 29.80 in 10.0 mi WNW 13.8 mph 18.4 mph N/A   Clear
2:55 PM 93.0 °F 94.6 °F 63.7 °F 38% 29.78 in 10.0 mi West 6.9 mph - N/A   Clear
3:55 PM 93.9 °F 94.4 °F 61.7 °F 34% 29.77 in 10.0 mi SW 9.2 mph - N/A   Partly Cloudy
4:55 PM 94.8 °F 94.9 °F 60.3 °F 32% 29.77 in 10.0 mi West 9.2 mph - N/A   Clear
5:55 PM 93.6 °F 93.1 °F 59.2 °F 32% 29.77 in 10.0 mi West 9.2 mph - N/A   Clear
6:55 PM 91.9 °F 92.5 °F 62.6 °F 37% 29.78 in 10.0 mi NW 5.8 mph - N/A   Clear
7:55 PM 86.2 °F 88.8 °F 66.6 °F 52% 29.81 in 10.0 mi Calm Calm - N/A   Clear
8:55 PM 80.4 °F 82.7 °F 66.6 °F 63% 29.83 in 10.0 mi Calm Calm - N/A   Clear
9:55 PM 76.8 °F - 66.4 °F 70% 29.86 in 10.0 mi Calm Calm - N/A   Clear
10:55 PM 73.8 °F - 65.8 °F 76% 29.87 in 10.0 mi Calm Calm - N/A   Clear
11:55 PM 72.9 °F - 65.7 °F 78% 29.87 in 9.0 mi Calm Calm - N/A   Clear